| time (UTC) | temp C | wind direction | speed KPH | gust KPH | rain 1hr cm | rain 24hr cm | rain mn cm | humidity % | barometer mb |
| 20260507194541 | 17 | 72 | 12.9 | 22.5 | 0.00 | 0.00 | 0.00 | 30 | 1008.1 |
| 20260507193036 | 17 | 129 | 6.4 | 17.7 | 0.00 | 0.00 | 0.00 | 29 | 1008.4 |
| 20260507191525 | 16 | 16 | 8.0 | 17.7 | 0.00 | 0.00 | 0.00 | 29 | 1008.4 |
| 20260507190055 | 16 | 15 | 9.7 | 17.7 | 0.00 | 0.00 | 0.00 | 30 | 1008.6 |
| 20260507184545 | 16 | 59 | 8.0 | 20.9 | 0.00 | 0.00 | 0.00 | 28 | 1008.7 |
| 20260507183035 | 15 | 82 | 3.2 | 17.7 | 0.00 | 0.00 | 0.00 | 29 | 1008.7 |
| 20260507181527 | 15 | 65 | 11.3 | 24.1 | 0.00 | 0.00 | 0.00 | 28 | 1008.8 |
| 20260507180051 | 13 | 12 | 9.7 | 16.1 | 0.00 | 0.00 | 0.00 | 30 | 1009.0 |
| 20260507174543 | 13 | 86 | 12.9 | 17.7 | 0.00 | 0.00 | 0.00 | 30 | 1009.1 |
| 20260507173036 | 14 | 46 | 14.5 | 20.9 | 0.00 | 0.00 | 0.00 | 32 | 1009.2 |
| 20260507171527 | 14 | 82 | 12.9 | 22.5 | 0.00 | 0.00 | 0.00 | 32 | 1009.3 |
| 20260507170050 | 13 | 82 | 6.4 | 16.1 | 0.00 | 0.00 | 0.00 | 33 | 1009.6 |
| 20260507164542 | 12 | 71 | 6.4 | 16.1 | 0.00 | 0.00 | 0.00 | 33 | 1009.7 |
| 20260507163035 | 12 | 76 | 8.0 | 14.5 | 0.00 | 0.00 | 0.00 | 34 | 1009.6 |
| 20260507161526 | 12 | 84 | 3.2 | 11.3 | 0.00 | 0.00 | 0.00 | 34 | 1009.8 |
| 20260507160051 | 11 | 49 | 8.0 | 14.5 | 0.00 | 0.00 | 0.00 | 36 | 1009.9 |
| 20260507154544 | 11 | 41 | 14.5 | 20.9 | 0.00 | 0.00 | 0.00 | 36 | 1010.0 |
| 20260507153038 | 12 | 56 | 11.3 | 17.7 | 0.00 | 0.00 | 0.00 | 34 | 1009.9 |
| 20260507151528 | 12 | 13 | 8.0 | 17.7 | 0.00 | 0.00 | 0.00 | 31 | 1009.8 |
| 20260507150103 | 12 | 332 | 4.8 | 12.9 | 0.00 | 0.00 | 0.00 | 32 | 1009.9 |
| 20260507144550 | 11 | 266 | 4.8 | 8.0 | 0.00 | 0.00 | 0.00 | 34 | 1009.8 |
| 20260507143038 | 10 | 315 | 3.2 | 9.7 | 0.00 | 0.00 | 0.00 | 41 | 1009.9 |
| 20260507141527 | 9 | 298 | 8.0 | 12.9 | 0.00 | 0.00 | 0.00 | 39 | 1009.9 |
| 20260507140108 | 7 | 329 | 0.0 | 4.8 | 0.00 | 0.00 | 0.00 | 49 | 1009.9 |
| 20260507134545 | 6 | 295 | 0.0 | 3.2 | 0.00 | 0.00 | 0.00 | 54 | 1009.8 |
| 20260507133035 | 5 | 360 | 1.6 | 4.8 | 0.00 | 0.00 | 0.00 | 54 | 1009.7 |
| 20260507131535 | 4 | 279 | 3.2 | 4.8 | 0.00 | 0.00 | 0.00 | 60 | 1009.5 |
| 20260507130100 | 3 | 221 | 0.0 | 3.2 | 0.00 | 0.00 | 0.00 | 58 | 1009.4 |
| 20260507124547 | 3 | 211 | 3.2 | 6.4 | 0.00 | 0.00 | 0.00 | 57 | 1009.3 |
| 20260507123039 | 2 | 211 | 4.8 | 8.0 | 0.00 | 0.00 | 0.00 | 55 | 1009.1 |
| 20260507121529 | 2 | 209 | 1.6 | 3.2 | 0.00 | 0.00 | 0.00 | 53 | 1009.1 |
| 20260507120048 | 1 | 202 | 1.6 | 8.0 | 0.00 | 0.00 | 0.00 | 53 | 1009.1 |
| 20260507114539 | 2 | 203 | 1.6 | 6.4 | 0.00 | 0.00 | 0.00 | 52 | 1008.9 |
| 20260507113039 | 2 | 203 | 1.6 | 3.2 | 0.00 | 0.00 | 0.00 | 52 | 1008.8 |
| 20260507111526 | 1 | 360 | 4.8 | 6.4 | 0.00 | 0.00 | 0.00 | 53 | 1008.7 |
| 20260507110055 | 1 | 218 | 4.8 | 8.0 | 0.00 | 0.00 | 0.00 | 53 | 1008.5 |
| 20260507104544 | 2 | 218 | 4.8 | 6.4 | 0.00 | 0.00 | 0.00 | 51 | 1008.5 |
| 20260507103036 | 2 | 218 | 4.8 | 8.0 | 0.00 | 0.00 | 0.00 | 52 | 1008.3 |
| 20260507101537 | 1 | 218 | 4.8 | 9.7 | 0.00 | 0.00 | 0.00 | 58 | 1008.4 |
| 20260507100047 | 1 | 218 | 3.2 | 6.4 | 0.00 | 0.00 | 0.00 | 55 | 1008.3 |
| 20260507094548 | 1 | 218 | 4.8 | 8.0 | 0.00 | 0.00 | 0.00 | 57 | 1008.4 |
| 20260507093035 | 0 | 218 | 8.0 | 11.3 | 0.00 | 0.00 | 0.00 | 58 | 1008.4 |
| 20260507091549 | 0 | 221 | 4.8 | 8.0 | 0.00 | 0.00 | 0.00 | 57 | 1008.4 |
| 20260507090111 | 1 | 221 | 6.4 | 9.7 | 0.00 | 0.00 | 0.00 | 55 | 1008.5 |
| 20260507084542 | 1 | 221 | 3.2 | 6.4 | 0.00 | 0.00 | 0.00 | 52 | 1008.5 |
| 20260507083034 | 2 | 221 | 4.8 | 8.0 | 0.00 | 0.00 | 0.00 | 52 | 1008.3 |
| 20260507081534 | 2 | 223 | 4.8 | 11.3 | 0.00 | 0.00 | 0.00 | 50 | 1008.4 |
| 20260507080047 | 3 | 223 | 6.4 | 9.7 | 0.00 | 0.00 | 0.00 | 50 | 1008.5 |
| 20260507074540 | 3 | 145 | 3.2 | 4.8 | 0.00 | 0.00 | 0.00 | 48 | 1008.7 |
| 20260507073031 | 3 | 146 | 0.0 | 3.2 | 0.00 | 0.00 | 0.00 | 48 | 1008.7 |
| 20260507071525 | 3 | 145 | 1.6 | 4.8 | 0.00 | 0.00 | 0.00 | 46 | 1008.7 |
| 20260507070010 | 3 | 144 | 0.0 | 3.2 | 0.00 | 0.00 | 0.00 | 48 | 1008.7 |
| 20260507064555 | 2 | 145 | 0.0 | 4.8 | 0.00 | 0.00 | 0.00 | 48 | 1008.7 |
| 20260507063047 | 2 | 144 | 4.8 | 6.4 | 0.00 | 0.00 | 0.00 | 50 | 1008.8 |
| 20260507061538 | 3 | 144 | 3.2 | 6.4 | 0.00 | 0.00 | 0.00 | 49 | 1008.9 |
| 20260507060053 | 3 | 144 | 3.2 | 6.4 | 0.00 | 0.00 | 0.00 | 49 | 1008.9 |
| 20260507054546 | 3 | 144 | 4.8 | 6.4 | 0.00 | 0.00 | 0.00 | 48 | 1009.0 |
| 20260507053031 | 4 | 144 | 4.8 | 8.0 | 0.00 | 0.00 | 0.00 | 46 | 1009.1 |
| 20260507051525 | 5 | 144 | 1.6 | 4.8 | 0.00 | 0.00 | 0.00 | 45 | 1009.2 |
| 20260507050056 | 5 | 144 | 3.2 | 4.8 | 0.00 | 0.00 | 0.00 | 46 | 1009.2 |
| 20260507044549 | 6 | 144 | 3.2 | 6.4 | 0.00 | 0.00 | 0.00 | 45 | 1009.3 |
| 20260507043040 | 7 | 144 | 3.2 | 8.0 | 0.00 | 0.00 | 0.00 | 42 | 1009.6 |
| 20260507041527 | 7 | 144 | 4.8 | 8.0 | 0.00 | 0.00 | 0.00 | 39 | 1009.7 |
| 20260507040052 | 8 | 143 | 4.8 | 8.0 | 0.00 | 0.00 | 0.00 | 38 | 1010.0 |
| 20260507034546 | 8 | 144 | 1.6 | 6.4 | 0.00 | 0.00 | 0.00 | 38 | 1010.3 |
| 20260507033033 | 8 | 144 | 4.8 | 12.9 | 0.00 | 0.00 | 0.00 | 38 | 1010.4 |
| 20260507031526 | 8 | 140 | 9.7 | 16.1 | 0.00 | 0.00 | 0.00 | 37 | 1010.6 |
| 20260507030056 | 9 | 140 | 12.9 | 17.7 | 0.00 | 0.00 | 0.00 | 37 | 1010.5 |
| 20260507024544 | 9 | 134 | 12.9 | 14.5 | 0.00 | 0.00 | 0.00 | 36 | 1010.6 |
| 20260507023035 | 9 | 142 | 6.4 | 14.5 | 0.00 | 0.00 | 0.00 | 34 | 1010.7 |
| 20260507021525 | 10 | 129 | 11.3 | 16.1 | 0.00 | 0.00 | 0.00 | 34 | 1010.8 |
| 20260507020053 | 10 | 129 | 8.0 | 14.5 | 0.00 | 0.00 | 0.00 | 33 | 1011.0 |
| 20260507014553 | 11 | 127 | 8.0 | 20.9 | 0.00 | 0.00 | 0.00 | 31 | 1011.0 |
| 20260507013036 | 11 | 132 | 6.4 | 14.5 | 0.00 | 0.00 | 0.00 | 30 | 1011.1 |
| 20260507011530 | 12 | 231 | 3.2 | 6.4 | 0.00 | 0.00 | 0.00 | 27 | 1011.1 |
| 20260507010045 | 13 | 232 | 0.0 | 8.0 | 0.00 | 0.00 | 0.00 | 27 | 1011.3 |
| 20260507004536 | 13 | 229 | 3.2 | 8.0 | 0.00 | 0.00 | 0.00 | 26 | 1011.3 |
| 20260507003028 | 13 | 231 | 6.4 | 12.9 | 0.00 | 0.00 | 0.00 | 24 | 1011.3 |
| 20260507001521 | 13 | 247 | 11.3 | 24.1 | 0.00 | 0.00 | 0.00 | 24 | 1011.5 |
| 20260507000045 | 13 | 360 | 14.5 | 25.7 | 0.00 | 0.00 | 0.00 | 26 | 1011.5 |
| 20260506234537 | 13 | 292 | 17.7 | 29.0 | 0.00 | 0.00 | 0.00 | 24 | 1011.7 |
| 20260506233030 | 13 | 360 | 19.3 | 35.4 | 0.00 | 0.00 | 0.00 | 26 | 1011.9 |
| 20260506231522 | 13 | 360 | 25.7 | 40.2 | 0.00 | 0.00 | 0.00 | 25 | 1011.9 |
| 20260506230045 | 13 | 360 | 22.5 | 43.5 | 0.00 | 0.00 | 0.00 | 24 | 1012.3 |
| 20260506224538 | 13 | 315 | 20.9 | 33.8 | 0.00 | 0.00 | 0.00 | 25 | 1012.4 |
| 20260506223031 | 13 | 306 | 20.9 | 41.8 | 0.00 | 0.00 | 0.00 | 26 | 1012.5 |
| 20260506221525 | 13 | 360 | 29.0 | 40.2 | 0.00 | 0.00 | 0.00 | 25 | 1012.6 |
| 20260506220052 | 13 | 288 | 22.5 | 38.6 | 0.00 | 0.00 | 0.00 | 24 | 1013.1 |
| 20260506214545 | 13 | 248 | 22.5 | 37.0 | 0.00 | 0.00 | 0.00 | 24 | 1013.4 |
| 20260506213034 | 13 | 322 | 19.3 | 38.6 | 0.00 | 0.00 | 0.00 | 25 | 1013.7 |
| 20260506211522 | 12 | 337 | 27.4 | 40.2 | 0.00 | 0.00 | 0.00 | 26 | 1014.0 |
| 20260506210051 | 12 | 333 | 19.3 | 35.4 | 0.00 | 0.00 | 0.00 | 27 | 1014.3 |
| 20260506204541 | 12 | 360 | 29.0 | 40.2 | 0.00 | 0.00 | 0.00 | 29 | 1014.7 |
| 20260506203034 | 12 | 344 | 17.7 | 37.0 | 0.00 | 0.00 | 0.00 | 29 | 1014.9 |
| 20260506201539 | 12 | 341 | 19.3 | 33.8 | 0.00 | 0.00 | 0.00 | 31 | 1015.1 |
| 20260506200054 | 11 | 360 | 27.4 | 38.6 | 0.00 | 0.00 | 0.00 | 28 | 1015.4 |